[[{"header":{"parameterUnit":"m.s-1","parameterCategory":1,"la1":30.2991,"la2":30.254,"lo1":-89.0895,"lo2":-89.0444,"dy":0.0017,"dx":0.0017,"nx":28,"ny":28,"refTime":"2025-06-18T03:00:00:Z","depth":0,"parameterNumber":2,"parameterNumberName":"U-component_of_WINDS"},"data":[0,0,0,0,0,0,0,0,0,0,0,0,0,0,0,0,0,0,0,0,0,0,0,0,0,0,0,0,0,0,0,0,0,0,0,0,0,0,0,0,0,0,0,0,0,0,0,0,0,0,0,0,0,0,0,0,0,0,1.5165,1.5166,0,1.5184,1.5184,1.5184,1.5173,1.5173,1.5172,1.5172,1.5194,1.5195,1.5197,0,0,0,0,0,0,0,0,0,0,0,0,0,1.5126,1.5127,1.5165,1.5166,1.5166,1.5183,1.5184,1.5184,1.5173,1.5173,1.5172,1.5172,1.5194,1.5195,1.5197,0,0,0,0,0,0,0,0,0,0,0,0,0,1.5144,1.5127,1.5165,1.5163,1.5162,1.5183,1.5184,1.5184,1.5174,1.5173,1.5172,1.5171,1.5194,1.5195,1.5197,1.5223,0,0,1.5202,1.5203,0,0,0,0,0,0,0,0,1.5143,1.5145,1.5163,1.5163,1.5163,1.5175,1.5178,1.5197,1.5174,1.5169,1.5172,1.5171,1.5189,1.5191,1.5196,1.5224,1.5225,1.5202,1.5203,1.5204,1.5204,0,0,0,0,0,0,0,1.5142,1.5144,1.5173,1.5163,1.5163,1.5162,1.5164,1.5182,1.5184,1.517,1.5169,1.5171,1.5189,1.5195,1.5197,1.5225,1.5202,1.5203,1.5204,1.5205,1.5276,1.5277,0,0,0,0,0,0,1.514,1.5143,1.5172,1.5173,1.5151,1.5163,1.5165,1.5172,1.5183,1.5184,1.5172,1.5171,1.5192,1.5195,1.5197,1.5229,1.5204,1.5205,1.5206,1.5275,1.5276,1.5277,0,0,0,0,0,0,1.5139,1.5143,1.5171,1.5158,1.5162,1.5165,1.5173,1.5173,1.5179,1.5185,1.5185,1.5177,1.5192,1.5195,1.5216,1.5229,1.5206,1.5207,1.5274,1.5276,1.5277,1.5291,0,0,0,0,0,0,1.5138,1.5142,1.5151,1.5158,1.5162,1.5189,1.5174,1.5174,1.5181,1.518,1.519,1.5191,1.5191,1.5214,1.5218,1.5231,1.5209,1.5273,1.5275,1.5276,1.529,1.5293,1.5296,0,0,0,0,0,1.5137,1.5155,1.5151,1.5155,1.5173,1.5189,1.5192,1.5191,1.5182,1.5191,1.5196,1.5191,1.5227,1.5216,1.5221,1.5235,1.5272,1.5274,1.5276,1.5288,1.5292,1.5296,0,0,0,0,0,0,1.515,1.5156,1.5152,1.5173,1.5181,1.5187,1.5199,1.5195,1.5206,1.5205,1.5204,1.5207,1.5229,1.5234,1.5222,1.5261,1.5249,1.5252,1.5256,1.526,1.5263,1.5261,1.521,0,0,0,0,0,1.5155,1.5167,1.5172,1.519,1.5194,1.5196,1.5203,1.5202,1.521,1.5214,1.5219,1.5229,1.5243,1.5252,1.5265,1.5291,1.5294,1.5303,1.5306,1.5308,1.5311,1.5326,1.533,1.5284,1.5284,1.5284,0,0,1.5167,1.5171,1.5179,1.5193,1.5198,1.5212,1.5199,1.5213,1.5223,1.5216,1.5236,1.5241,1.5252,1.5276,1.5287,1.5281,1.5324,1.5311,1.5313,1.5314,1.5328,1.5333,1.5336,1.5285,1.5285,1.5285,0,0,1.5193,1.5198,1.5213,1.522,1.5228,1.523,1.5234,1.5241,1.5244,1.5264,1.5259,1.5272,1.5296,1.5304,1.5311,1.5343,1.5339,1.5348,1.5363,1.5378,1.5381,1.5385,1.5396,1.54,1.535,1.535,1.535,0,1.5207,1.5224,1.5222,1.5237,1.5244,1.5238,1.5254,1.5261,1.5274,1.528,1.5273,1.5303,1.531,1.5336,1.5343,1.5349,1.5355,1.5346,1.5381,1.5384,1.5387,1.5398,1.5402,1.5351,1.5351,1.5351,1.5351,0,1.524,1.5253,1.5265,1.5277,1.5285,1.5301,1.5303,1.5312,1.531,1.5313,1.5335,1.5343,1.5358,1.5364,1.5363,1.5391,1.5387,1.538,1.5368,1.5392,1.5403,1.5407,1.5352,1.5352,1.5352,1.5352,0,0,1.5275,1.5285,1.529,1.5295,1.5305,1.5316,1.5332,1.5346,1.5354,1.5364,1.5378,1.5399,1.5393,1.5402,1.5402,1.5415,1.544,1.5407,1.5408,1.5413,1.5471,1.5475,1.548,1.5438,1.5439,1.5439,1.547,0,1.5302,1.5328,1.5328,1.5353,1.5366,1.5361,1.5375,1.5384,1.5387,1.54,1.5405,1.5419,1.5411,1.5416,1.5428,1.5434,1.5452,1.5432,1.5452,1.5453,1.5449,1.5486,1.549,1.5518,1.5474,1.5475,1.5476,0,1.5337,1.5347,1.5373,1.5381,1.5387,1.5399,1.5412,1.5424,1.5434,1.5436,1.5446,1.5445,1.5463,1.5451,1.5477,1.5464,1.5473,1.5477,1.5478,1.5479,1.5465,1.5488,1.5528,1.5532,1.5482,1.5481,1.5481,0,1.5359,1.5379,1.5397,1.5402,1.5413,1.5422,1.5427,1.5437,1.5445,1.5458,1.5463,1.5478,1.5486,1.5498,1.5502,1.5492,1.5528,1.5516,1.5531,1.5531,1.5538,1.5537,1.5579,1.5544,1.5544,1.5544,1.5544,0,1.5389,1.5405,1.5408,1.5419,1.5438,1.5438,1.5457,1.5462,1.547,1.5484,1.5481,1.5494,1.5498,1.5512,1.5516,1.5537,1.5541,1.5544,1.5545,1.5544,1.5543,1.5549,1.5547,1.5545,1.5545,1.5545,1.5545,0,1.5416,1.5418,1.5438,1.5447,1.5449,1.5463,1.5471,1.5483,1.5486,1.5503,1.5508,1.5514,1.5531,1.5536,1.5556,1.5558,1.5584,1.5583,1.558,1.5579,1.5594,1.5592,1.5641,1.5647,1.5609,1.5609,1.5609,0,1.5435,1.5447,1.5457,1.5465,1.547,1.5483,1.5492,1.5494,1.5503,1.5516,1.5527,1.5543,1.5556,1.5583,1.5591,1.5607,1.5606,1.5622,1.5609,1.5608,1.5606,1.5605,1.5607,1.5624,1.5625,1.5625,1.5625,0,1.5467,1.5468,1.5479,1.5492,1.5502,1.5512,1.5522,1.5529,1.5532,1.5544,1.556,1.557,1.5591,1.5607,1.5624,1.5631,1.5629,1.563,1.5634,1.5633,1.563,1.5632,1.5586,1.5628,1.5628,1.5628,1.5628,1.5628,1.549,1.5501,1.551,1.5523,1.5531,1.554,1.5552,1.5557,1.557,1.5586,1.5587,1.5605,1.5617,1.5639,1.5647,1.5663,1.5658,1.5664,1.5666,1.5667,1.5668,1.5629,1.5666,1.5666,1.5666,1.5666,1.5666,0,1.5523,1.5528,1.554,1.5554,1.5565,1.5561,1.5572,1.5582,1.5598,1.5608,1.5621,1.5641,1.5657,1.5667,1.5684,1.5694,1.5694,1.5699,1.5697,1.5699,1.5671,1.5666,1.5699,1.5699,1.5699,1.5699,1.5699,1.5699,1.554,1.5558,1.5561,1.5583,1.5589,1.5606,1.5612,1.5622,1.563,1.5652,1.5665,1.5671,1.5682,1.5699,1.5715,1.5718,1.5724,1.5729,1.5731,1.5705,1.5701,1.5698,1.5693,1.5731,1.5731,1.5758,1.5758,1.5758]},{"header":{"parameterUnit":"m.s-1","parameterCategory":1,"la1":30.2991,"la2":30.254,"lo1":-89.0895,"lo2":-89.0444,"dy":0.0017,"dx":0.0017,"nx":28,"ny":28,"refTime":"2025-06-18T03:00:00:Z","depth":0,"parameterNumber":3,"parameterNumberName":"V-component_of_WINDS"},"data":[0,0,0,0,0,0,0,0,0,0,0,0,0,0,0,0,0,0,0,0,0,0,0,0,0,0,0,0,0,0,0,0,0,0,0,0,0,0,0,0,0,0,0,0,0,0,0,0,0,0,0,0,0,0,0,0,0,0,2.071,2.0709,0,2.0597,2.0596,2.0595,2.0546,2.0547,2.0547,2.0547,2.0424,2.0421,2.0417,0,0,0,0,0,0,0,0,0,0,0,0,0,2.0877,2.0875,2.071,2.0709,2.0707,2.0597,2.0596,2.0594,2.0546,2.0547,2.0547,2.0547,2.0425,2.0421,2.0417,0,0,0,0,0,0,0,0,0,0,0,0,0,2.0789,2.0874,2.071,2.067,2.0666,2.0598,2.0596,2.0594,2.0546,2.0547,2.0547,2.0547,2.0427,2.0421,2.0416,2.0378,0,0,2.04,2.0398,0,0,0,0,0,0,0,0,2.0794,2.0782,2.0678,2.0673,2.0668,2.0586,2.061,2.0521,2.0546,2.0591,2.0547,2.0547,2.0477,2.0468,2.0446,2.0372,2.0366,2.04,2.0397,2.0394,2.0393,0,0,0,0,0,0,0,2.08,2.0787,2.0665,2.0676,2.067,2.0656,2.0644,2.0593,2.0533,2.0587,2.0584,2.0571,2.0474,2.0451,2.0442,2.0365,2.04,2.0395,2.0392,2.039,2.0253,2.0252,0,0,0,0,0,0,2.0814,2.0792,2.0669,2.0662,2.0733,2.0653,2.0639,2.0612,2.0534,2.0523,2.0571,2.057,2.046,2.0449,2.0438,2.0387,2.0395,2.039,2.0387,2.0253,2.0253,2.0252,0,0,0,0,0,0,2.0817,2.0803,2.0673,2.0726,2.0709,2.0649,2.0619,2.061,2.0586,2.0522,2.051,2.0558,2.0459,2.0445,2.0393,2.0382,2.0387,2.0383,2.0254,2.0253,2.0252,2.0286,0,0,0,0,0,0,2.0822,2.0805,2.0791,2.0726,2.0706,2.0633,2.0619,2.0607,2.0578,2.0575,2.0507,2.0496,2.0459,2.0401,2.0388,2.0375,2.0378,2.0255,2.0253,2.0253,2.0286,2.0287,2.0288,0,0,0,0,0,2.0829,2.0803,2.0791,2.0776,2.0688,2.0632,2.062,2.058,2.0577,2.0562,2.0521,2.0498,2.0386,2.0397,2.0381,2.0367,2.0255,2.0254,2.0253,2.0285,2.0287,2.0288,0,0,0,0,0,0,2.0866,2.0794,2.0779,2.0733,2.0689,2.0624,2.0604,2.0583,2.0537,2.0536,2.0486,2.0471,2.0423,2.0389,2.0402,2.0325,2.0318,2.0314,2.0349,2.0349,2.035,2.0359,2.0374,0,0,0,0,0,2.0869,2.0832,2.0771,2.0735,2.0715,2.0663,2.0637,2.0611,2.0562,2.0543,2.0498,2.045,2.0404,2.0375,2.0329,2.0281,2.0265,2.0263,2.0264,2.0265,2.0262,2.0234,2.0232,2.0248,2.0248,2.0248,0,0,2.0874,2.0831,2.081,2.0742,2.0705,2.0666,2.0648,2.0607,2.0577,2.0536,2.0485,2.045,2.0393,2.0344,2.0319,2.0314,2.0254,2.0264,2.0265,2.0261,2.0232,2.0231,2.0229,2.0247,2.0248,2.0248,0,0,2.0864,2.0828,2.0795,2.0759,2.0705,2.0671,2.0663,2.0601,2.0577,2.0526,2.0495,2.0457,2.0379,2.034,2.031,2.0286,2.0263,2.0272,2.0276,2.0249,2.0248,2.0247,2.0238,2.0235,2.0269,2.0269,2.0269,0,2.0877,2.0819,2.078,2.0742,2.0712,2.0676,2.0641,2.0607,2.0539,2.0519,2.0515,2.0417,2.0376,2.0316,2.0311,2.0288,2.0276,2.0279,2.0252,2.025,2.0248,2.0239,2.0236,2.0271,2.027,2.027,2.027,0,2.0838,2.0798,2.0777,2.0716,2.0684,2.0647,2.0601,2.0573,2.0549,2.0515,2.0462,2.0412,2.0356,2.0339,2.0314,2.0276,2.0275,2.0262,2.0254,2.0249,2.0239,2.0235,2.0273,2.0272,2.0272,2.0271,0,0,2.0847,2.0766,2.0759,2.073,2.0668,2.0635,2.0596,2.0544,2.0521,2.0475,2.044,2.0376,2.0364,2.033,2.03,2.0276,2.026,2.0266,2.0264,2.0267,2.0214,2.0225,2.0221,2.0245,2.0244,2.0244,2.0219,0,2.0828,2.076,2.0724,2.067,2.0632,2.0598,2.0563,2.052,2.0488,2.0449,2.0411,2.0367,2.0355,2.0334,2.0309,2.0268,2.0249,2.0269,2.021,2.0209,2.0226,2.0216,2.0226,2.0206,2.0215,2.0215,2.0214,0,2.0797,2.0755,2.0699,2.0641,2.0624,2.0594,2.0543,2.0507,2.0457,2.0435,2.0398,2.0369,2.0325,2.0321,2.0259,2.0273,2.0247,2.0223,2.0221,2.0214,2.0211,2.0208,2.0198,2.0195,2.0208,2.0208,2.0209,0,2.081,2.0738,2.0695,2.0672,2.0604,2.0584,2.0554,2.0505,2.0476,2.043,2.041,2.0359,2.0331,2.0292,2.0249,2.0251,2.0191,2.0184,2.0169,2.017,2.0158,2.0159,2.0143,2.0142,2.0142,2.0142,2.0142,0,2.0792,2.0759,2.07,2.0674,2.0635,2.0593,2.0554,2.0521,2.0478,2.0443,2.0409,2.0376,2.0322,2.0282,2.0248,2.0202,2.0189,2.0168,2.016,2.0171,2.0174,2.0153,2.0153,2.0141,2.0141,2.0141,2.0141,0,2.0799,2.0759,2.071,2.065,2.0634,2.0608,2.0556,2.0528,2.0494,2.045,2.0437,2.0383,2.0334,2.0288,2.0222,2.0199,2.0152,2.0141,2.017,2.0165,2.0154,2.0155,2.0123,2.0117,2.0121,2.0121,2.0121,0,2.0791,2.0765,2.0703,2.0678,2.065,2.061,2.0581,2.0538,2.0509,2.045,2.0429,2.0378,2.0336,2.0259,2.0212,2.0162,2.0149,2.0141,2.0141,2.0153,2.0148,2.015,2.0147,2.0142,2.0142,2.0142,2.0142,0,2.078,2.0761,2.0722,2.0676,2.0642,2.0603,2.0562,2.0543,2.0492,2.046,2.0412,2.0379,2.0313,2.0263,2.0207,2.0174,2.0149,2.0143,2.0137,2.0148,2.0166,2.0156,2.0172,2.0144,2.0143,2.0143,2.0143,2.0143,2.0778,2.0753,2.0707,2.0664,2.0629,2.0592,2.0563,2.0527,2.0486,2.0431,2.0407,2.0358,2.0308,2.0231,2.0198,2.0157,2.0152,2.0143,2.0141,2.0139,2.0141,2.0174,2.0147,2.0147,2.0147,2.0147,2.0147,0,2.0765,2.0734,2.0695,2.0641,2.0606,2.0589,2.0543,2.0515,2.0473,2.043,2.0389,2.0333,2.0284,2.0234,2.0182,2.0159,2.0147,2.0147,2.0148,2.0141,2.015,2.016,2.0158,2.0158,2.0158,2.0158,2.0158,2.0158,2.0755,2.0712,2.0688,2.0628,2.0596,2.0549,2.0524,2.049,2.0455,2.0395,2.0355,2.0324,2.0277,2.0222,2.0176,2.0162,2.0144,2.0148,2.0131,2.0141,2.014,2.0139,2.0149,2.0145,2.0145,2.0125,2.0125,2.0125]}]]